Location: Crni Vrh Observatory
(45.9460°N, 14.0712°E)
Time: 00:46:58
(UTC+01:00)

ISS - Pass Details

Date: 04 December 2023
Orbit: 414 x 422 km, 51.6° (Epoch: 27 February)

Event Time Altitude Azimuth Distance (km) Brightness Sun altitude
Rises 17:14:43 0° 297° (WNW) 2,413 0.8 -9.4°
Reaches altitude 10° 17:16:50 10° 295° (WNW) 1,548 -0.2 -9.7°
Maximum altitude 17:20:18 70° 212° (SSW) 472 -3.4 -10.3°
Drops below altitude 10° 17:23:47 10° 128° (SE) 1,555 -1.2 -10.8°
Enters shadow 17:25:22 - 126° (SE) 2,200 -0.4 -11.1°
